Regional Weather Roundup
Issued by NWS Upton, NY

Current Version | Previous Version | Text Only | Print | Product List | Glossary Off
Versions: 1 2 3 4 5 6 7 8 9 10 11 12 13 14 15 16 17 18 19 20 21 22 23 24 25 26 27 28
000 ASUS41 KOKX 251209 RWROKX REGIONAL WEATHER ROUNDUP NATIONAL WEATHER SERVICE NEW YORK NY 800 AM EDT MON SEP 25 2017 NOTE: "FAIR" INDICATES FEW OR NO CLOUDS BELOW 12,000 FEET WITH NO SIGNIFICANT WEATHER AND/OR OBSTRUCTIONS TO VISIBILITY. NYZ071-072-176-178-NJZ106-104-251300- NEW YORK CITY METRO AREA CITY SKY/WX TMP DP RH WIND PRES REMARKS Central Park SUNNY 73 66 78 CALM 30.09R Bronx Bot Gard N/A 72 64 78 CALM 30.07R LaGuardia APRT MOSUNNY 73 67 81 NE3 30.06R Kennedy INTL MOSUNNY 72 66 81 NE5 30.07R Breezy Point N/A 70 N/A N/A E2 N/A Newark/Liberty MOSUNNY 75 67 76 CALM 30.06R Teterboro SUNNY 74 68 81 CALM 30.06R $$ NYZ177-179-078>081-251300- LONG ISLAND NEW YORK CITY SKY/WX TMP DP RH WIND PRES REMARKS Jones Beach N/A 70 N/A N/A SE3 N/A Matinecock PT N/A 72 N/A N/A S1 N/A Farmingdale SUNNY 69 65 86 CALM 30.07R MacArthur/ISP MOSUNNY 70 66 87 S5 30.07R Shirley SUNNY 70 65 84 CALM 30.07R Mt Sinai Harb N/A N/A N/A N/A S1 N/A Westhampton SUNNY 64 60 87 CALM 30.08R East Hampton FAIR 62 60 91 CALM 30.06R Montauk N/A 68 67 96 CALM 30.08R $$ NYZ052-065-067-251300- HUDSON VALLEY CITY SKY/WX TMP DP RH WIND PRES REMARKS White Plains SUNNY 71 66 84 CALM 30.07R Larchmont Harb N/A 70 N/A N/A CALM N/A Croton On Huds N/A 73 N/A N/A MISG N/A Newburgh SUNNY 66 66 100 CALM 30.11R Montgomery SUNNY 64 63 96 CALM 30.09R Poughkeepsie PTSUNNY 64 62 93 CALM 30.08R FOG Albany SUNNY 68 65 90 CALM 30.10R $$ NJZ001-105-106-008-010-013-015-019>022-104-251300- NEW JERSEY CITY SKY/WX TMP DP RH WIND PRES REMARKS Newark/Liberty MOSUNNY 75 67 76 CALM 30.06R Teterboro SUNNY 74 68 81 CALM 30.06R Caldwell SUNNY 69 67 93 CALM 30.08R Somerville NOT AVBL Linden FAIR 74 66 75 CALM 30.07R Perth Amboy N/A 70 N/A N/A NW2 N/A Sussex SUNNY 63 63 100 CALM 30.10R Andover N/A 64 63 96 CALM 30.10R Trenton SUNNY 70 66 87 N6 30.06R Millville SUNNY 68 66 93 CALM 30.06R Atlantic City SUNNY 70 66 87 CALM 30.06R Wrightstown SUNNY 65 64 95 CALM 30.04R Toms River SUNNY 64 60 87 CALM 30.08 Belmar SUNNY 71 65 81 CALM 30.08R $$ PAZ047>061-062-071-251300- EASTERN PENNSYLVANIA CITY SKY/WX TMP DP RH WIND PRES REMARKS Philadelphia MOSUNNY 71 68 90 CALM 30.06R Allentown SUNNY 67 64 90 CALM 30.08R Scranton SUNNY 66 64 93 SE3 30.13R $$ CTZ002-004>006-009-010-012-RIZ004-006-007-MAZ004-011-015-251300- SOUTHERN NEW ENGLAND IN CT CITY SKY/WX TMP DP RH WIND PRES REMARKS Bradley INTL SUNNY 70 67 90 N6 30.07R Hartford SUNNY 68 67 96 CALM 30.07R Danbury SUNNY 67 64 90 CALM 30.09R Wtrbury/Oxford NOT AVBL Norwalk Harbor N/A 68 N/A N/A SW2 N/A Bridgeport SUNNY 71 67 87 E3 30.06R Meriden SUNNY 70 66 87 CALM 30.07R New Haven SUNNY 70 67 90 CALM 30.06R Chester FAIR 70 66 88 CALM 30.07R Groton SUNNY 67 62 84 NE3 30.06R Wilimantic SUNNY 65 64 97 CALM 30.08R IN RI CITY SKY/WX TMP DP RH WIND PRES REMARKS Providence SUNNY 68 65 90 N3 30.08R Block Island SUNNY 66 65 96 SE6 30.08R Westerly SUNNY 65 61 87 CALM 30.07R IN MA CITY SKY/WX TMP DP RH WIND PRES REMARKS Boston MOSUNNY 67 65 93 E3 30.08R Worcester SUNNY 74 65 73 NE8 30.11R Westfield SUNNY 69 67 93 N6 30.08R Provincetown FOG 64 64 100 S3 30.09R VSB 3/4 Nantucket FOG 62 62 100 NE5 30.07R VSB 1/4 $$ ANZ330-335-338-340-345-350-353-355-251300- COASTAL MARINE OBSERVATIONS STATION/POSITION TIME SKY/WX TEMP WIND PRES VSBY WAVE AIR SEA DIR/SP/G HT/PER (UTC) (F) (DEG/KT/KT) (MB) (MI) (FT/S) NY HARB ENTRANCE 1050 72 71 170/ 4/ 6 1016.8 4/11 20 S FIRE ISLAND 1050 68 69 140/ 2/ 4 1017.7 5/12 GREAT SOUTH BAY 1130 71 72 180/ 4/ 6 N/A 23 SSW MONTAUK P 1050 65 65 1017.7 6/12 15 E BARNEGAT LI 1130 71 N/A 4/11 HUDSON CANYON 1050 66 69 90/ 8/ 10 1016.8 7/11 KINGS POINT 1142 71 72 200/ 1/ 2 1018.7 EXECUTION ROCKS 1145 71 220/ 2/ 2 N/A WESTERN LI SOUND NOT AVBL CENTRAL LI SOUND NOT AVBL EASTERN LI SOUND NOT AVBL ROBBINS REEF 1142 73 CALM / 1 1018.6 $$ >>>>>>>>>>>>>>>>>>>>>>>>>>>> KEY <<<<<<<<<<<<<<<<<<<<<<<<<<< > < > SKY/WX - Sky Condition/Present Weather < > TMP - Temperature in Fahrenheit < > DP - Dew Point in Fahrenheit < > RH - Relative Humidity in Percent < > WIND - Direction (from) and Speed in MPH < > PRES - Mean Sea Level Pressure (inches of Hg) < > WCI - Wind Chill Index < > VSB - VISIBILITY IN MILES < > HX - HEAT INDEX < > TC - TEMPERATURE IN CELSIUS < > VRB - VARIABLE WIND DIRECTION < > < >>>>>>>>>>>>>>>>>>>>>>>>>>>> KEY <<<<<<<<<<<<<<<<<<<<<<<<<<<

USA.gov is the U.S. government's official web portal to all federal, state and local government web resources and services.